EW2960 Weather Reports


time (UTC)temp
C
wind
direction
speed
KPH
gust
KPH
rain 1hr
cm
rain 24hr
cm
rain mn
cm
humidity
%
barometer
mb
20260506102940 7 324 1.6 1.6 0.30 1.50 1.50 99 1003.6
20260506102439 7 316 1.6 3.2 0.18 1.45 1.45 99 1003.9
20260506101936 7 320 1.6 1.6 0.13 1.42 1.42 99 1003.9
20260506101432 7 297 0.0 0.0 0.48 1.42 1.42 99 1003.8
20260506100929 7 308 4.8 4.8 0.48 1.40 1.40 99 1003.7
20260506100428 7 318 3.2 4.8 0.43 1.35 1.35 99 1003.8
20260506095925 7 287 3.2 3.2 0.48 1.32 1.32 99 1003.9
20260506095424 7 306 4.8 6.4 0.43 1.30 1.30 99 1003.7
20260506094919 7 319 1.6 1.6 0.43 1.24 1.24 99 1003.4
20260506094418 7 302 0.0 0.0 0.30 1.22 1.22 99 1003.3
20260506093915 7 311 1.6 3.2 0.30 1.19 1.19 99 1003.7
20260506093413 7 291 1.6 3.2 0.18 1.17 1.17 99 1003.6
20260506092911 7 332 0.0 1.6 0.13 1.14 1.14 99 1003.2
20260506092409 7 317 1.6 3.2 0.13 1.14 1.14 99 1003.3
20260506091905 8 306 3.2 4.8 0.00 1.12 1.12 99 1003.1
20260506091403 8 288 1.6 3.2 0.00 1.12 1.12 99 1003.2
20260506090900 8 327 14.5 17.7 0.00 1.12 1.12 99 1003.2
20260506090358 8 309 0.0 0.0 0.18 1.12 1.12 99 1003.0
20260506085854 8 306 0.0 0.0 0.18 1.12 1.12 99 1002.9
20260506085351 8 318 3.2 4.8 0.18 1.09 1.09 99 1002.9
20260506084847 8 325 3.2 9.7 0.18 1.09 1.09 99 1003.3
20260506084344 8 328 0.0 1.6 0.30 1.07 1.07 99 1003.2
20260506083840 9 299 1.6 3.2 0.43 1.07 1.07 99 1003.1
20260506083338 9 316 3.2 3.2 0.30 1.02 1.02 99 1003.2
20260506082835 9 198 3.2 3.2 0.48 0.99 0.99 99 1003.4
20260506082332 9 325 3.2 3.2 0.43 0.97 0.97 99 1003.1
20260506081828 9 297 0.0 0.0 0.48 0.94 0.94 99 1003.4
20260506081326 9 293 0.0 0.0 0.30 0.89 0.89 99 1003.1
20260506080823 9 312 0.0 0.0 0.30 0.86 0.86 99 1003.0
20260506080320 9 303 0.0 0.0 0.30 0.84 0.84 99 1003.0
20260506073304 9 306 1.6 1.6 0.13 0.69 0.69 99 1002.8
20260506072801 9 315 0.0 0.0 0.30 0.69 0.69 99 1002.7
20260506072258 10 328 0.0 0.0 0.18 0.66 0.66 99 1002.8
20260506071756 10 327 0.0 0.0 0.13 0.64 0.64 99 1002.8
20260506071254 9 315 0.0 0.0 0.30 0.64 0.64 99 1002.8
20260506070750 10 314 0.0 0.0 0.18 0.61 0.61 99 1002.9
20260506070247 10 300 0.0 0.0 0.13 0.58 0.58 99 1002.8
20260506062224 10 307 0.0 0.0 0.30 0.43 0.43 99 1003.3
20260506061720 10 291 0.0 0.0 0.30 0.41 0.41 99 1003.4
20260506061218 10 317 0.0 0.0 0.18 0.38 0.38 99 1003.4
20260506060716 10 311 0.0 0.0 0.00 0.36 0.36 99 1003.5
20260506060212 10 315 0.0 1.6 0.13 0.36 0.36 99 1003.5
20260506051139 10 321 0.0 0.0 0.30 0.18 0.18 99 1004.2
20260506050638 10 298 0.0 0.0 0.13 0.15 0.15 99 1004.3
20260506050134 10 311 0.0 0.0 0.18 0.13 0.13 99 1004.2
20260506045127 10 327 1.6 1.6 0.18 0.10 0.10 99 1004.4
20260506044625 10 317 0.0 0.0 0.18 0.10 0.10 99 1004.4
20260506044122 10 304 0.0 0.0 0.13 0.08 0.08 99 1004.3
20260506043619 10 285 0.0 0.0 0.13 0.08 0.08 99 1004.4
20260506043117 10 284 0.0 0.0 0.30 0.08 0.08 99 1004.6
20260506042616 10 283 1.6 1.6 0.18 0.05 0.05 99 1004.6
20260506042114 10 333 0.0 0.0 0.13 0.03 0.03 99 1004.8
20260506041612 10 300 1.6 3.2 0.13 0.03 0.03 99 1004.6
20260506041108 11 307 0.0 0.0 0.00 0.00 0.00 99 1004.8
20260506040607 11 289 0.0 1.6 0.00 0.00 0.00 99 1004.7
20260506035600 11 289 0.0 0.0 0.18 1.22 1.22 99 1004.8
20260506035056 11 306 0.0 0.0 0.00 1.19 1.19 99 1004.7
20260506034553 11 315 0.0 0.0 0.13 1.19 1.19 99 1004.9
20260506034050 12 315 0.0 1.6 0.30 1.19 1.19 99 1004.7
20260506033548 12 320 3.2 3.2 0.48 1.17 1.17 99 1004.9
20260506033044 12 292 0.0 1.6 0.30 1.14 1.14 99 1004.9
20260506032542 12 282 0.0 0.0 0.30 1.12 1.12 99 1004.7
20260506032038 12 282 0.0 0.0 0.61 1.09 1.09 99 1004.3
20260506031536 12 283 0.0 1.6 0.79 1.07 1.07 99 1004.2
20260506031033 12 283 0.0 0.0 0.79 0.99 0.99 99 1004.3
20260506030531 12 282 0.0 0.0 0.79 0.94 0.94 99 1004.2
20260506030028 12 284 0.0 0.0 0.43 0.86 0.86 99 1004.4
20260506025525 12 284 0.0 0.0 0.13 0.81 0.81 99 1004.2
20260506025021 12 284 0.0 0.0 0.18 0.79 0.79 99 1004.3
20260506024518 12 284 0.0 0.0 0.30 0.79 0.79 99 1004.3
20260506024014 12 284 0.0 0.0 0.13 0.76 0.76 99 1004.4
20260506023510 12 284 0.0 0.0 0.00 0.74 0.74 99 1004.4
20260506023009 12 284 0.0 0.0 0.00 0.74 0.74 99 1004.3
20260506022506 12 284 0.0 0.0 0.18 0.74 0.74 99 1004.8
20260506022003 12 284 0.0 0.0 0.18 0.74 0.74 99 1004.6
20260506021500 12 284 0.0 0.0 0.18 0.71 0.71 99 1004.6
20260506020957 12 284 0.0 0.0 0.30 0.71 0.71 99 1004.7
20260506020455 12 284 0.0 0.0 0.30 0.69 0.69 99 1004.6
20260506015952 12 284 0.0 0.0 0.18 0.66 0.66 99 1004.6
20260506015449 12 284 0.0 0.0 0.13 0.64 0.64 99 1004.7
20260506014946 12 284 0.0 0.0 0.13 0.64 0.64 99 1004.3
20260506014443 12 284 0.0 0.0 0.00 0.61 0.61 99 1004.3
20260506013939 12 283 0.0 0.0 0.18 0.61 0.61 99 1004.2
20260506013438 13 283 0.0 0.0 0.18 0.61 0.61 99 1004.1
20260506012933 12 291 0.0 0.0 0.13 0.58 0.58 99 1004.4
20260506012430 13 309 0.0 0.0 0.13 0.58 0.58 99 1004.2
20260506011927 12 317 0.0 0.0 0.00 0.56 0.56 99 1004.0
20260506011425 13 317 0.0 0.0 0.00 0.56 0.56 99 1004.2
20260506010921 13 306 0.0 0.0 0.00 0.56 0.56 99 1004.2
20260506010420 13 303 0.0 0.0 0.18 0.56 0.56 99 1004.4
20260506005916 13 322 0.0 0.0 0.48 0.56 0.56 99 1004.1
20260506005414 13 325 0.0 0.0 0.61 0.53 0.53 99 1004.3
20260506004909 13 20 1.6 1.6 0.79 0.48 0.48 99 1004.7
20260506004407 13 298 1.6 3.2 1.37 0.43 0.43 98 1004.8
20260506003903 14 335 3.2 3.2 0.89 0.33 0.33 98 1004.8
20260506003359 14 291 1.6 3.2 0.61 0.20 0.20 98 1004.8
20260506002856 14 335 1.6 3.2 0.48 0.18 0.18 98 1004.4
20260506002352 15 309 3.2 3.2 0.18 0.13 0.13 97 1004.6
20260506001848 15 301 0.0 1.6 0.00 0.10 0.10 97 1003.9
20260506001345 15 286 4.8 4.8 0.30 0.10 0.10 96 1003.6
20260506000842 15 304 3.2 4.8 0.48 0.10 0.10 95 1003.7
20260506000340 16 314 3.2 3.2 0.18 0.05 0.05 94 1003.8
20260505235836 16 306 0.0 0.0 0.00 0.03 0.03 92 1003.4
20260505235334 16 319 0.0 1.6 0.00 0.03 0.03 92 1003.3
20260505234830 16 310 0.0 0.0 0.00 0.03 0.03 92 1003.3
20260505234329 16 310 0.0 0.0 0.00 0.03 0.03 91 1003.2
20260505233825 16 333 0.0 0.0 0.00 0.03 0.03 89 1003.3
20260505233323 17 332 0.0 0.0 0.00 0.03 0.03 89 1003.2
20260505232820 17 332 0.0 0.0 0.00 0.03 0.03 88 1003.1
20260505232318 17 332 0.0 0.0 0.00 0.03 0.03 88 1003.3
20260505231814 17 332 0.0 0.0 0.00 0.03 0.03 88 1003.6
20260505231312 17 277 0.0 0.0 0.00 0.03 0.03 88 1003.4
20260505230810 17 277 0.0 0.0 0.00 0.03 0.03 88 1003.4
20260505230307 17 277 0.0 0.0 0.00 0.03 0.03 88 1003.1
20260505225803 17 277 0.0 0.0 0.00 0.03 0.03 87 1003.5
20260505225301 17 277 0.0 0.0 0.00 0.03 0.03 88 1003.6
20260505224755 17 277 0.0 0.0 0.00 0.03 0.03 88 1003.8
20260505224254 17 277 0.0 0.0 0.00 0.03 0.03 88 1003.6
20260505223751 17 277 0.0 0.0 0.00 0.03 0.03 88 1003.8
20260505223247 17 277 0.0 0.0 0.00 0.03 0.03 88 1003.8
20260505222743 17 277 0.0 0.0 0.00 0.03 0.03 87 1003.8
20260505222240 17 277 0.0 0.0 0.00 0.03 0.03 88 1003.9
20260505221737 17 277 0.0 0.0 0.00 0.03 0.03 86 1003.6
20260505221233 17 277 0.0 0.0 0.00 0.03 0.03 86 1003.8
20260505220730 17 277 0.0 0.0 0.00 0.03 0.03 88 1003.7
20260505220228 17 277 0.0 0.0 0.00 0.03 0.03 87 1003.6
20260505215726 17 277 0.0 0.0 0.00 0.03 0.03 87 1003.8
20260505215223 17 277 0.0 0.0 0.00 0.03 0.03 86 1003.7
20260505214721 17 276 0.0 0.0 0.00 0.03 0.03 87 1004.0
20260505214218 17 276 0.0 0.0 0.00 0.03 0.03 87 1003.7
20260505213715 17 276 0.0 0.0 0.00 0.03 0.03 88 1003.8
20260505213213 17 276 0.0 0.0 0.00 0.03 0.03 88 1003.8
20260505212708 17 276 0.0 0.0 0.00 0.03 0.03 87 1003.7
20260505212206 17 276 0.0 0.0 0.00 0.03 0.03 89 1003.8
20260505211703 17 276 0.0 0.0 0.00 0.03 0.03 91 1003.8
20260505211200 17 279 0.0 0.0 0.00 0.03 0.03 89 1003.9
20260505210656 17 279 0.0 0.0 0.00 0.03 0.03 88 1003.8
20260505210153 17 279 0.0 0.0 0.00 0.03 0.03 86 1003.6
20260505205651 17 328 0.0 1.6 0.00 0.03 0.03 85 1003.8
20260505205149 17 271 0.0 0.0 0.13 0.03 0.03 83 1003.9
20260505204645 18 237 0.0 0.0 0.13 0.03 0.03 81 1003.7
20260505204143 18 239 1.6 1.6 0.00 0.00 0.00 77 1003.6
20260505203640 19 269 0.0 0.0 0.00 0.00 0.00 70 1003.8
20260505203137 20 269 0.0 0.0 0.00 0.00 0.00 66 1003.5
20260505202632 20 267 0.0 0.0 0.00 0.00 0.00 64 1003.5
20260505202128 20 239 1.6 1.6 0.00 0.00 0.00 63 1003.5
20260505201625 20 247 3.2 4.8 0.00 0.00 0.00 62 1003.4
20260505201123 20 80 3.2 3.2 0.00 0.00 0.00 62 1003.5
20260505200621 20 354 0.0 0.0 0.00 0.00 0.00 63 1003.5
20260505200118 20 297 1.6 1.6 0.00 0.00 0.00 62 1003.5
20260505195614 20 270 0.0 1.6 0.00 0.00 0.00 63 1003.6
20260505195111 20 286 1.6 1.6 0.00 0.00 0.00 62 1003.8
20260505194608 21 301 0.0 1.6 0.00 0.00 0.00 61 1003.8
20260505194104 21 198 1.6 1.6 0.00 0.00 0.00 61 1003.9
20260505193601 20 345 1.6 1.6 0.00 0.00 0.00 62 1004.0
20260505193058 20 277 0.0 0.0 0.00 0.00 0.00 63 1004.0
20260505192557 20 256 1.6 1.6 0.00 0.00 0.00 63 1004.2
20260505192054 20 247 0.0 1.6 0.00 0.00 0.00 62 1004.2
20260505191552 20 244 1.6 1.6 0.00 0.00 0.00 63 1004.2
20260505191050 20 287 1.6 3.2 0.00 0.00 0.00 62 1004.3
20260505190544 20 195 6.4 6.4 0.00 0.00 0.00 63 1004.4
20260505190040 20 283 1.6 1.6 0.00 0.00 0.00 62 1004.3
20260505185537 20 210 4.8 4.8 0.00 0.00 0.00 62 1004.4
20260505185034 20 195 3.2 3.2 0.00 0.00 0.00 61 1004.2
20260505184531 20 248 0.0 0.0 0.00 0.00 0.00 59 1003.9
20260505184027 21 205 1.6 3.2 0.00 0.00 0.00 59 1004.2
20260505183524 21 316 6.4 9.7 0.00 0.00 0.00 58 1004.2
20260505183021 21 329 6.4 9.7 0.00 0.00 0.00 58 1004.2
20260505182512 21 270 0.0 0.0 0.00 0.00 0.00 59 1003.9
20260505182009 21 314 1.6 1.6 0.00 0.00 0.00 58 1003.7
20260505181505 21 341 3.2 4.8 0.00 0.00 0.00 59 1004.1
20260505181003 21 275 4.8 4.8 0.00 0.00 0.00 59 1003.9
20260505180458 21 278 0.0 0.0 0.00 0.00 0.00 59 1003.9
20260505175955 22 28 1.6 1.6 0.00 0.00 0.00 56 1003.9
20260505175451 21 307 1.6 4.8 0.00 0.00 0.00 60 1003.9
20260505174948 21 206 3.2 4.8 0.00 0.00 0.00 59 1003.7
20260505174445 21 152 4.8 9.7 0.00 0.00 0.00 61 1003.8
20260505173941 21 275 1.6 3.2 0.00 0.00 0.00 59 1004.0
20260505173438 21 248 4.8 6.4 0.00 0.00 0.00 58 1003.8
20260505172935 21 228 4.8 9.7 0.00 0.00 0.00 58 1003.9
20260505172433 21 200 3.2 3.2 0.00 0.00 0.00 58 1003.7
20260505171932 21 231 0.0 0.0 0.00 0.00 0.00 58 1003.9
20260505171430 22 222 1.6 1.6 0.00 0.00 0.00 58 1003.8
20260505170926 22 138 3.2 4.8 0.00 0.00 0.00 56 1003.6
20260505170423 23 317 0.0 1.6 0.00 0.00 0.00 53 1003.7
20260505165918 22 238 1.6 3.2 0.00 0.00 0.00 56 1003.7
20260505165415 22 222 4.8 4.8 0.00 0.00 0.00 55 1003.6
20260505164910 23 142 3.2 4.8 0.00 0.00 0.00 58 1003.7
20260505164407 22 262 3.2 3.2 0.00 0.00 0.00 57 1003.7
20260505163905 23 242 3.2 3.2 0.00 0.00 0.00 56 1003.9
20260505163404 22 173 1.6 3.2 0.00 0.00 0.00 57 1003.8
20260505162902 22 218 3.2 4.8 0.00 0.00 0.00 57 1003.6
20260505162357 22 123 4.8 4.8 0.00 0.00 0.00 58 1003.7
20260505161855 22 277 1.6 3.2 0.00 0.00 0.00 58 1003.6
20260505161352 21 153 4.8 6.4 0.00 0.00 0.00 59 1003.5
20260505160849 21 304 0.0 1.6 0.00 0.00 0.00 61 1003.8
20260505160347 21 303 4.8 6.4 0.00 0.00 0.00 59 1003.8
20260505153325 21 297 1.6 1.6 0.00 0.00 0.00 63 1004.2
20260505152822 21 236 6.4 9.7 0.00 0.00 0.00 64 1004.1
20260505152319 21 227 3.2 3.2 0.00 0.00 0.00 66 1004.4
20260505151814 20 211 4.8 6.4 0.00 0.00 0.00 66 1004.0
20260505151311 20 204 0.0 0.0 0.00 0.00 0.00 70 1004.1
20260505150808 20 146 4.8 9.7 0.00 0.00 0.00 69 1004.0
20260505150305 20 147 6.4 9.7 0.00 0.00 0.00 70 1004.0
20260505140229 16 263 3.2 3.2 0.00 0.00 0.00 80 1003.7
20260505130153 18 254 1.6 3.2 0.00 0.00 0.00 68 1003.6
20260505124643 18 246 0.0 0.0 0.00 0.00 0.00 69 1003.5
20260505124139 18 208 1.6 3.2 0.00 0.00 0.00 70 1003.6
20260505123635 18 102 1.6 1.6 0.00 0.00 0.00 71 1003.4
20260505123132 18 217 1.6 1.6 0.00 0.00 0.00 69 1003.3
20260505122629 18 163 3.2 4.8 0.00 0.00 0.00 69 1003.3
20260505122126 18 168 1.6 3.2 0.00 0.00 0.00 69 1003.5
20260505121623 18 260 3.2 4.8 0.00 0.00 0.00 70 1003.3
20260505121119 18 247 0.0 0.0 0.00 0.00 0.00 70 1003.4
20260505120616 17 244 0.0 0.0 0.00 0.00 0.00 71 1003.4
20260505120112 17 254 4.8 6.4 0.00 0.00 0.00 70 1003.3
20260505115606 17 296 0.0 1.6 0.00 0.00 0.00 72 1003.2
20260505115104 17 323 1.6 1.6 0.00 0.00 0.00 71 1003.3
20260505114601 17 136 6.4 11.3 0.00 0.00 0.00 71 1003.2
20260505114057 17 151 3.2 4.8 0.00 0.00 0.00 72 1003.2
20260505113553 16 235 0.0 1.6 0.00 0.00 0.00 73 1003.3
20260505113044 16 134 3.2 3.2 0.00 0.00 0.00 72 1003.4
20260505112540 16 133 3.2 4.8 0.00 0.00 0.00 73 1003.4
20260505112038 16 246 0.0 0.0 0.00 0.00 0.00 74 1003.1
20260505111532 16 187 3.2 3.2 0.00 0.00 0.00 73 1003.1
20260505111028 16 267 1.6 1.6 0.00 0.00 0.00 73 1003.0
20260505110519 16 115 1.6 3.2 0.00 0.00 0.00 72 1003.1